Tracking 29892 objects as of 21-Nov-2024
HD Live streaming from Space Station
objects crossing your sky now

FENGYUN 1C DEB

Track FENGYUN 1C DEB now!
10-day predictions


NORAD ID: 30194
Int'l Code: 1999-025VB
Perigee: 609.9 km
Apogee: 656.4 km
Inclination: 101.2 °
Period: 97.2 minutes
Semi major axis: 7004 km
RCS: 0.024 m2 (small)
Launch date: May 10, 1999
Source: People's Republic of China (PRC)
Launch site: Taiyaun Space Center, China (TSC)

Note: This is SATELLITE DEBRIS
Your satellite tracking list
Your tracking list is empty




NASA's NSSDC Master Catalog

Two Line Element Set (TLE):
1 30194U 99025VB  24325.32807182  .00074977  00000-0  94814-2 0  9991
2 30194 101.2285 105.9067 0033224 283.0183 106.0233 14.81053397930261
Source of the keplerian elements: AFSPC